Location: Unspecified
(0.0000°N, 0.0000°E)
Time: 11:32:06
(UTC+00:00)

Hubble Space Telescope - Visible Passes

Search period start: 29 May 2020 00:00
Search period end: 08 June 2020 00:00
Orbit: 536 x 540 km, 28.5° (Epoch: 29 May)

Date Brightness Start Highest point End Pass type
(mag) Time Alt. Az. Time Alt. Az. Time Alt. Az.
06 Jun 3.1 19:00:01 10° N 19:01:45 12° NNE 19:03:28 10° NE visible
06 Jun 4.0 20:38:53 10° NW 20:39:09 12° NW 20:39:09 12° NW visible
07 Jun 2.9 18:48:27 10° NNW 18:51:08 17° NNE 18:53:47 10° ENE visible
07 Jun 3.6 20:28:11 10° WNW 20:29:07 16° WNW 20:29:07 16° WNW visible
